Location: Newark
(31.5350°N, 35.0986°E)
Time: 20:03:47
(UTC+00:00)

Explorer 7 - Pass Details

Date: 26 October 2019
Orbit: 485 x 680 km, 50.3° (Epoch: 14 November)

Event Time Altitude Azimuth Distance (km) Brightness Sun altitude
Rises 13:57:17 0° 306° (NW) 2,596 10.7 11.1°
Reaches altitude 10° 13:59:29 10° 300° (WNW) 1,732 10.0 10.7°
Maximum altitude 14:03:15 46° 227° (SW) 718 8.3 10.0°
Drops below altitude 10° 14:07:13 10° 154° (SSE) 1,824 9.5 9.2°
Sets 14:09:35 0° 148° (SSE) 2,753 10.3 8.7°
